Weather History for KWLD - August, 2013

Change the Weather History Date:

Monday, August 5, 2013

  Actual Average Record
Temperature  
Mean Temperature 84 °F -  
Max Temperature 96 °F 89 °F - (-1)
Min Temperature 73 °F 68 °F - (-1)
Cooling Degree Days 19    
Growing Degree Days 34 (Base 50)    
Moisture  
Dew Point 74 °F    
Average Humidity 82    
Maximum Humidity 100    
Minimum Humidity 52    
Precipitation  
Precipitation 0.19 in - - ()
Sea Level Pressure  
Sea Level Pressure 29.89 in    
Wind  
Wind Speed 8 mph (SE)    
Max Wind Speed 22 mph    
Max Gust Speed 28 mph    
Visibility 9 miles    
Events Rain , Thunderstorm    
Averages and records for this station are not official NWS values.
T = Trace of Precipitation, MM = Missing Value Source: NWS Daily Summary

Daily Weather History Graph

Daily Weather History Graph

Search for Another Location

Airport or City:

Trip Planner

Search our weather history database for the weather conditions in past years. The results will help you decide how hot, cold, wet, or windy it might be!

Date:

Astronomy

Aug. 05, 2013 Rise Set
Actual Time 6:36 AM CDT 8:31 PM CDT
Civil Twilight 6:08 AM CDT 8:59 PM CDT
Nautical Twilight 5:33 AM CDT 9:33 PM CDT
Astronomical Twilight 4:56 AM CDT 10:10 PM CDT
Moon 5:32 AM CDT (8/5) 7:33 PM CDT (8/5)
Length of Visible Light 14h 51m
Length of Day
13h 54m
Waning Crescent, 1% of the Moon is Illuminated
Aug 5
Waning Crescent
Aug 6
New
Aug 14
First Quarter
Aug 20
Full
Aug 28
Last Quarter

Hourly Weather History & Observations

Time (CDT) Temp. Heat Index Dew Point Humidity Pressure Visibility Wind Dir Wind Speed Gust Speed Precip Events Conditions
12:54 AM 73.9 °F - 73.9 °F 100% 29.97 in 8.0 mi East 6.9 mph - 0.03 in   Overcast
1:54 AM 73.9 °F - 73.0 °F 97% 29.95 in 9.0 mi East 8.1 mph - 0.02 in   Mostly Cloudy
2:20 AM 73.4 °F - 73.4 °F 100% 29.97 in 8.0 mi East 6.9 mph - 0.01 in   Mostly Cloudy
2:54 AM 73.9 °F - 73.0 °F 97% 29.95 in 9.0 mi East 9.2 mph - 0.02 in   Overcast
3:54 AM 73.9 °F - 73.0 °F 97% 29.94 in 10.0 mi East 9.2 mph - 0.02 in   Mostly Cloudy
4:54 AM 73.0 °F - 72.0 °F 96% 29.94 in 9.0 mi ESE 9.2 mph - 0.02 in   Scattered Clouds
5:43 AM 73.4 °F - 73.4 °F 100% 29.96 in 8.0 mi ESE 8.1 mph - 0.02 in   Overcast
5:54 AM 73.0 °F - 73.0 °F 100% 29.92 in 8.0 mi SE 8.1 mph - 0.02 in   Mostly Cloudy
6:40 AM 73.4 °F - 71.6 °F 94% 29.95 in 7.0 mi ESE 8.1 mph - 0.01 in   Mostly Cloudy
6:50 AM 73.4 °F - 71.6 °F 94% 29.95 in 6.0 mi ESE 9.2 mph - 0.02 in   Scattered Clouds
6:54 AM 73.0 °F - 72.0 °F 96% 29.92 in 6.0 mi ESE 10.4 mph - 0.02 in   Scattered Clouds
7:54 AM 75.0 °F - 73.9 °F 96% 29.92 in 7.0 mi South 3.5 mph - 0.01 in   Clear
8:54 AM 79.0 °F - 75.0 °F 88% 29.91 in 10.0 mi SSE 11.5 mph - 0.01 in   Clear
9:54 AM 82.0 °F 88.6 °F 75.0 °F 79% 29.90 in 10.0 mi South 8.1 mph - 0.02 in   Clear
10:54 AM 86.0 °F 95.1 °F 75.0 °F 70% 29.88 in 10.0 mi SSW 12.7 mph - N/A   Clear
11:54 AM 89.1 °F 99.1 °F 75.0 °F 63% 29.87 in 10.0 mi SW 12.7 mph - N/A   Clear
12:54 PM 91.0 °F 101.6 °F 75.0 °F 59% 29.87 in 10.0 mi SW 8.1 mph - N/A   Clear
1:54 PM 91.9 °F 105.9 °F 77.0 °F 62% 29.86 in 10.0 mi SW 8.1 mph - N/A   Clear
2:54 PM 93.0 °F 104.6 °F 75.0 °F 56% 29.85 in 10.0 mi SSW 5.8 mph - N/A   Partly Cloudy
3:54 PM 95.0 °F 108.2 °F 75.9 °F 54% 29.82 in 10.0 mi Calm Calm - N/A   Clear
4:54 PM 95.0 °F 106.7 °F 75.0 °F 52% 29.80 in 10.0 mi South 4.6 mph - N/A   Clear
5:54 PM 93.9 °F 108.4 °F 77.0 °F 58% 29.78 in 10.0 mi SE 10.4 mph - N/A   Clear
6:54 PM 90.0 °F 102.5 °F 77.0 °F 65% 29.78 in 10.0 mi ESE 5.8 mph - N/A   Clear
7:54 PM 88.0 °F 101.3 °F 78.1 °F 72% 29.78 in 10.0 mi East 6.9 mph - N/A   Clear
8:54 PM 86.0 °F 98.3 °F 78.1 °F 77% 29.76 in 10.0 mi SE 8.1 mph - N/A   Clear
9:54 PM 84.0 °F 96.0 °F 79.0 °F 85% 29.81 in 10.0 mi NNE 3.5 mph - N/A   Scattered Clouds
10:54 PM 82.9 °F 93.8 °F 79.0 °F 88% 29.86 in 10.0 mi WNW 10.4 mph 17.3 mph N/A   Partly Cloudy
11:23 PM 78.8 °F - 71.6 °F 78% 29.93 in 10.0 mi NNW 16.1 mph 25.3 mph N/A Thunderstorm Mostly Cloudy
11:50 PM 75.2 °F - 71.6 °F 89% 29.92 in 10.0 mi North 21.9 mph 27.6 mph 0.00 in Rain Light Rain
11:54 PM 75.0 °F - 71.1 °F 87% 29.89 in 10.0 mi North 18.4 mph 27.6 mph 0.00 in Rain Light Rain